CZ-6A DEB, 54576

Orbit data source: Space-Track

CZ-6A DEB, 54576 is space debris in SSO originally from a launch on Fri, 11 Nov 2022 UTC launched from the Taiyaun Space Center, China (TSC). Debris objects in space refer to the collection of defunct objects orbiting the Earth. Examples of debris include non-operational satellites, rocket bodies, and fragments generated from explosions, collisions, or faulty payload assembly.

Loading next visibility...
Identifier
54576, 2022-151MC
Orbit
SSO
Country
Flag of CNCN / PRC
Related business
Manufacturer
SAST
Mission
Spacecraft
Bus & Motor
Unknown
Mass
Unknown
Launch date (UTC)
2022-11-11 (4 years ago)
Launch vehicle
Unknown
Launch site
Taiyaun Space Center, China (TSC)
Object type
Payload
Rocket body
Debris
Shape & HBR
Unknown shape, 0.1 m
Radar Cross Section
Medium (>0.1 m² and <1 m²)

Expand to show TLE details & history
Last TLE update: 2 days ago

TLE from 2 days ago
0 CZ-6A DEB
1 54576U 22151MC  26235.15406570  .00032487  00000-0  28446-2 0  9994
2 54576  98.6197 314.1524 0037438  49.8046 310.6440 14.96078510129130
Epoch: 2026-08-23T03:41Z
TLE epoch observation values (Epoch: 2026-08-23T03:41:51.276Z)
Latitude
0.00004°
Longitude
-72.76545°
Altitude
565.135 km
Speed
7.588 km/s
True Right ascension
20h 56m 36s
True Declination
0° 00' 00"
Sunlit
Object was in full shadow at epoch
Visualization orbit readout
Latitude
Unknown
Longitude
Unknown
Altitude
Unknown
Speed
Unknown
Apparent Right ascension
Unknown
Apparent Declination
Unknown
Sunlit
N/A
Visualization observer readout
Local Sidereal Time
07:23:45
Azimuth
Unknown
Elevation
Unknown
Doppler factor
Unknown
Orbital elements
Apogee altitude
602.116 km
Perigee altitude
550.045 km
Semi-major axis
6,954.217 km
Eccentricity
0.00374
Inclination
98.6197°
RAAN
314.1524°
Arg. of periapsis
49.8046°
True anomaly
310.31749°
Mean anomaly
310.644°
Eccentric anomaly
310.48084°
Mean motion
3.74258 °/min
Orbital period
96.19 mins
BSTAR
0.0028446
Loading maneuver chart data...
Computing Atmospheric mass density...
Loading historical data...
Loading historical data...
Loading historical data...
Loading historical data...
Loading historical data...
Loading historical data...
Loading historical data...

Documentation

Showing up to 5 results
|